Location: ????
(55.5675°N, 37.6272°E)
Time: 21:46:26
(UTC+00:00)

Cosmos 2346 Rocket - Pass Details

Date: 14 April 2026
Orbit: 936 x 978 km, 82.9° (Epoch: 11 May)

Event Time Altitude Azimuth Distance (km) Brightness Sun altitude
Rises 19:30:07 0° 348° (NNW) 3,624 8.8 -20.2°
Reaches altitude 10° 19:32:37 10° 351° (N) 2,680 7.8 -20.4°
Maximum altitude 19:38:45 75° 76° (ENE) 992 4.4 -20.8°
Enters shadow 19:41:08 40° 153° (SSE) 1,389 4.8 -21.0°
